owner,sensor,date,latitude,longitude,vertical_datum,sea_water_practical_salinity,qcFlag 
TCOON,ioos:station:TCOON:127:1,2012-02-01T01:00:00Z,28.2598,-96.7737,0.0,24.8,1111122 
TCOON,ioos:station:TCOON:127:1,2012-02-01T08:30:00Z,28.2598,-96.7737,0.0,24.4,1111122 
TCOON,ioos:station:TCOON:127:1,2012-02-01T09:00:00Z,28.2598,-96.7737,0.0,24.3,1111122 
TCOON,ioos:station:TCOON:127:1,2012-02-01T14:30:00Z,28.2598,-96.7737,0.0,26.7,1111122 
TCOON,ioos:station:TCOON:127:1,2012-02-01T15:00:00Z,28.2598,-96.7737,0.0,26.5,1111122 
TCOON,ioos:station:TCOON:127:1,2012-02-01T15:30:00Z,28.2598,-96.7737,0.0,26.2,1111122 
TCOON,ioos:station:TCOON:127:1,2012-02-01T16:00:00Z,28.2598,-96.7737,0.0,24.4,1111122 
TCOON,ioos:station:TCOON:127:1,2012-02-01T16:30:00Z,28.2598,-96.7737,0.0,26.0,1111122 
TCOON,ioos:station:TCOON:127:1,2012-02-01T17:00:00Z,28.2598,-96.7737,0.0,25.2,1111122 
TCOON,ioos:station:TCOON:127:1,2012-02-01T18:30:00Z,28.2598,-96.7737,0.0,24.0,1111122 
TCOON,ioos:station:TCOON:127:1,2012-02-01T19:00:00Z,28.2598,-96.7737,0.0,24.1,1111122 
TCOON,ioos:station:TCOON:127:1,2012-02-01T19:30:00Z,28.2598,-96.7737,0.0,23.3,1111122 
TCOON,ioos:station:TCOON:127:1,2012-02-01T20:00:00Z,28.2598,-96.7737,0.0,22.5,1111122 
TCOON,ioos:station:TCOON:127:1,2012-02-01T20:30:00Z,28.2598,-96.7737,0.0,22.8,1111122 
TCOON,ioos:station:TCOON:127:1,2012-02-01T21:00:00Z,28.2598,-96.7737,0.0,22.8,1111122 
TCOON,ioos:station:TCOON:127:1,2012-02-01T21:30:00Z,28.2598,-96.7737,0.0,22.3,1111122 
TCOON,ioos:station:TCOON:127:1,2012-02-01T22:00:00Z,28.2598,-96.7737,0.0,22.2,1111122 
TCOON,ioos:station:TCOON:127:1,2012-02-01T23:00:00Z,28.2598,-96.7737,0.0,22.4,1111122 
TCOON,ioos:station:TCOON:127:1,2012-02-01T23:30:00Z,28.2598,-96.7737,0.0,22.5,1111122 
TCOON,ioos:station:TCOON:127:1,2012-02-02T00:00:00Z,28.2598,-96.7737,0.0,22.5,1111122 
TCOON,ioos:station:TCOON:127:1,2012-02-02T00:30:00Z,28.2598,-96.7737,0.0,22.5,1111122 
TCOON,ioos:station:TCOON:127:1,2012-02-02T02:00:00Z,28.2598,-96.7737,0.0,22.7,1111122 
TCOON,ioos:station:TCOON:127:1,2012-02-02T03:30:00Z,28.2598,-96.7737,0.0,23.3,1111122 
TCOON,ioos:station:TCOON:127:1,2012-02-02T09:00:00Z,28.2598,-96.7737,0.0,24.0,1111122 
TCOON,ioos:station:TCOON:127:1,2012-02-02T12:30:00Z,28.2598,-96.7737,0.0,23.5,1111122 
TCOON,ioos:station:TCOON:127:1,2012-02-02T13:00:00Z,28.2598,-96.7737,0.0,23.3,1111122 
TCOON,ioos:station:TCOON:127:1,2012-02-02T13:30:00Z,28.2598,-96.7737,0.0,23.4,1111122 
TCOON,ioos:station:TCOON:127:1,2012-02-02T14:00:00Z,28.2598,-96.7737,0.0,23.4,1111122 
TCOON,ioos:station:TCOON:127:1,2012-02-02T14:30:00Z,28.2598,-96.7737,0.0,23.4,1111122 
TCOON,ioos:station:TCOON:127:1,2012-02-02T15:30:00Z,28.2598,-96.7737,0.0,23.2,1111122 
TCOON,ioos:station:TCOON:127:1,2012-02-02T16:00:00Z,28.2598,-96.7737,0.0,23.2,1111122 
TCOON,ioos:station:TCOON:127:1,2012-02-02T16:30:00Z,28.2598,-96.7737,0.0,23.2,1111122 
TCOON,ioos:station:TCOON:127:1,2012-02-02T17:00:00Z,28.2598,-96.7737,0.0,23.2,1111122 
TCOON,ioos:station:TCOON:127:1,2012-02-02T17:30:00Z,28.2598,-96.7737,0.0,23.3,1111122 
TCOON,ioos:station:TCOON:127:1,2012-02-02T18:00:00Z,28.2598,-96.7737,0.0,23.4,1111122 
TCOON,ioos:station:TCOON:127:1,2012-02-02T18:30:00Z,28.2598,-96.7737,0.0,23.4,1111122 
TCOON,ioos:station:TCOON:127:1,2012-02-02T19:00:00Z,28.2598,-96.7737,0.0,23.4,1111122 
TCOON,ioos:station:TCOON:127:1,2012-02-02T19:30:00Z,28.2598,-96.7737,0.0,23.4,1111122 
TCOON,ioos:station:TCOON:127:1,2012-02-02T21:00:00Z,28.2598,-96.7737,0.0,23.3,1111122 
TCOON,ioos:station:TCOON:127:1,2012-02-02T21:30:00Z,28.2598,-96.7737,0.0,23.3,1111122 
TCOON,ioos:station:TCOON:127:1,2012-02-02T22:00:00Z,28.2598,-96.7737,0.0,23.2,1111122 
TCOON,ioos:station:TCOON:127:1,2012-02-02T22:30:00Z,28.2598,-96.7737,0.0,23.1,1111122 
TCOON,ioos:station:TCOON:127:1,2012-02-02T23:00:00Z,28.2598,-96.7737,0.0,23.2,1111122 
TCOON,ioos:station:TCOON:127:1,2012-02-02T23:30:00Z,28.2598,-96.7737,0.0,23.5,1111122 
TCOON,ioos:station:TCOON:127:1,2012-02-03T00:00:00Z,28.2598,-96.7737,0.0,23.7,1111122 
TCOON,ioos:station:TCOON:127:1,2012-02-03T00:30:00Z,28.2598,-96.7737,0.0,23.8,1111122 
TCOON,ioos:station:TCOON:127:1,2012-02-03T01:00:00Z,28.2598,-96.7737,0.0,24.0,1111122 
TCOON,ioos:station:TCOON:127:1,2012-02-03T01:30:00Z,28.2598,-96.7737,0.0,24.0,1111122 
TCOON,ioos:station:TCOON:127:1,2012-02-03T02:00:00Z,28.2598,-96.7737,0.0,24.2,1111122 
TCOON,ioos:station:TCOON:127:1,2012-02-03T02:30:00Z,28.2598,-96.7737,0.0,24.3,1111122 
TCOON,ioos:station:TCOON:127:1,2012-02-03T03:00:00Z,28.2598,-96.7737,0.0,24.1,1111122 
TCOON,ioos:station:TCOON:127:1,2012-02-03T03:30:00Z,28.2598,-96.7737,0.0,23.9,1111122 
TCOON,ioos:station:TCOON:127:1,2012-02-03T04:30:00Z,28.2598,-96.7737,0.0,24.2,1111122 
TCOON,ioos:station:TCOON:127:1,2012-02-03T05:00:00Z,28.2598,-96.7737,0.0,24.4,1111122 
TCOON,ioos:station:TCOON:127:1,2012-02-03T05:30:00Z,28.2598,-96.7737,0.0,24.6,1111122 
TCOON,ioos:station:TCOON:127:1,2012-02-03T06:00:00Z,28.2598,-96.7737,0.0,24.7,1111122 
TCOON,ioos:station:TCOON:127:1,2012-02-03T06:30:00Z,28.2598,-96.7737,0.0,24.8,1111122 
TCOON,ioos:station:TCOON:127:1,2012-02-03T07:00:00Z,28.2598,-96.7737,0.0,25.0,1111122 
TCOON,ioos:station:TCOON:127:1,2012-02-03T07:30:00Z,28.2598,-96.7737,0.0,25.1,1111122 
TCOON,ioos:station:TCOON:127:1,2012-02-03T09:30:00Z,28.2598,-96.7737,0.0,24.7,1111122 
TCOON,ioos:station:TCOON:127:1,2012-02-03T10:00:00Z,28.2598,-96.7737,0.0,24.6,1111122 
TCOON,ioos:station:TCOON:127:1,2012-02-03T13:00:00Z,28.2598,-96.7737,0.0,24.4,1111122 
TCOON,ioos:station:TCOON:127:1,2012-02-03T14:30:00Z,28.2598,-96.7737,0.0,23.8,1111122 
TCOON,ioos:station:TCOON:127:1,2012-02-03T15:00:00Z,28.2598,-96.7737,0.0,23.3,1111122 
TCOON,ioos:station:TCOON:127:1,2012-02-03T15:30:00Z,28.2598,-96.7737,0.0,23.5,1111122 
TCOON,ioos:station:TCOON:127:1,2012-02-03T16:00:00Z,28.2598,-96.7737,0.0,23.9,1111122 
TCOON,ioos:station:TCOON:127:1,2012-02-03T16:30:00Z,28.2598,-96.7737,0.0,24.2,1111122 
TCOON,ioos:station:TCOON:127:1,2012-02-03T17:00:00Z,28.2598,-96.7737,0.0,24.2,1111122 
TCOON,ioos:station:TCOON:127:1,2012-02-03T17:30:00Z,28.2598,-96.7737,0.0,24.2,1111122 
TCOON,ioos:station:TCOON:127:1,2012-02-03T18:00:00Z,28.2598,-96.7737,0.0,24.0,1111122 
TCOON,ioos:station:TCOON:127:1,2012-02-03T19:00:00Z,28.2598,-96.7737,0.0,24.1,1111122 
TCOON,ioos:station:TCOON:127:1,2012-02-03T19:30:00Z,28.2598,-96.7737,0.0,24.1,1111122 
TCOON,ioos:station:TCOON:127:1,2012-02-03T20:00:00Z,28.2598,-96.7737,0.0,24.1,1111122 
TCOON,ioos:station:TCOON:127:1,2012-02-03T20:30:00Z,28.2598,-96.7737,0.0,24.0,1111122 
TCOON,ioos:station:TCOON:127:1,2012-02-03T21:00:00Z,28.2598,-96.7737,0.0,24.0,1111122 
TCOON,ioos:station:TCOON:127:1,2012-02-03T21:30:00Z,28.2598,-96.7737,0.0,24.0,1111122 
TCOON,ioos:station:TCOON:127:1,2012-02-03T22:00:00Z,28.2598,-96.7737,0.0,23.9,1111122 
TCOON,ioos:station:TCOON:127:1,2012-02-03T23:00:00Z,28.2598,-96.7737,0.0,23.7,1111122 
TCOON,ioos:station:TCOON:127:1,2012-02-03T23:30:00Z,28.2598,-96.7737,0.0,23.6,1111122 
TCOON,ioos:station:TCOON:127:1,2012-02-04T00:00:00Z,28.2598,-96.7737,0.0,23.6,1111122 
TCOON,ioos:station:TCOON:127:1,2012-02-04T00:30:00Z,28.2598,-96.7737,0.0,23.6,1111122 
TCOON,ioos:station:TCOON:127:1,2012-02-04T01:00:00Z,28.2598,-96.7737,0.0,23.6,1111122 
TCOON,ioos:station:TCOON:127:1,2012-02-04T01:30:00Z,28.2598,-96.7737,0.0,23.6,1111122 
TCOON,ioos:station:TCOON:127:1,2012-02-04T02:00:00Z,28.2598,-96.7737,0.0,23.5,1111122 
TCOON,ioos:station:TCOON:127:1,2012-02-04T03:00:00Z,28.2598,-96.7737,0.0,23.4,1111122 
TCOON,ioos:station:TCOON:127:1,2012-02-04T03:30:00Z,28.2598,-96.7737,0.0,23.4,1111122 
TCOON,ioos:station:TCOON:127:1,2012-02-04T04:00:00Z,28.2598,-96.7737,0.0,23.3,1111122 
TCOON,ioos:station:TCOON:127:1,2012-02-04T04:30:00Z,28.2598,-96.7737,0.0,23.3,1111122 
TCOON,ioos:station:TCOON:127:1,2012-02-04T05:00:00Z,28.2598,-96.7737,0.0,23.3,1111122 
TCOON,ioos:station:TCOON:127:1,2012-02-04T05:30:00Z,28.2598,-96.7737,0.0,23.3,1111122 
TCOON,ioos:station:TCOON:127:1,2012-02-04T06:00:00Z,28.2598,-96.7737,0.0,23.3,1111122 
TCOON,ioos:station:TCOON:127:1,2012-02-04T13:30:00Z,28.2598,-96.7737,0.0,24.4,1111122 
TCOON,ioos:station:TCOON:127:1,2012-02-04T14:00:00Z,28.2598,-96.7737,0.0,24.4,1111122 
TCOON,ioos:station:TCOON:127:1,2012-02-04T14:30:00Z,28.2598,-96.7737,0.0,24.4,1111122 
TCOON,ioos:station:TCOON:127:1,2012-02-04T15:00:00Z,28.2598,-96.7737,0.0,24.2,1111122 
TCOON,ioos:station:TCOON:127:1,2012-02-04T15:30:00Z,28.2598,-96.7737,0.0,24.6,1111122 
TCOON,ioos:station:TCOON:127:1,2012-02-04T16:00:00Z,28.2598,-96.7737,0.0,24.4,1111122 
TCOON,ioos:station:TCOON:127:1,2012-02-04T16:30:00Z,28.2598,-96.7737,0.0,24.3,1111122 
TCOON,ioos:station:TCOON:127:1,2012-02-04T17:00:00Z,28.2598,-96.7737,0.0,24.2,1111122 
TCOON,ioos:station:TCOON:127:1,2012-02-04T17:30:00Z,28.2598,-96.7737,0.0,24.3,1111122 
TCOON,ioos:station:TCOON:127:1,2012-02-04T18:00:00Z,28.2598,-96.7737,0.0,24.4,1111122 
TCOON,ioos:station:TCOON:127:1,2012-02-04T18:30:00Z,28.2598,-96.7737,0.0,24.5,1111122 
TCOON,ioos:station:TCOON:127:1,2012-02-04T19:00:00Z,28.2598,-96.7737,0.0,24.5,1111122 
TCOON,ioos:station:TCOON:127:1,2012-02-04T19:30:00Z,28.2598,-96.7737,0.0,24.5,1111122 
TCOON,ioos:station:TCOON:127:1,2012-02-04T20:00:00Z,28.2598,-96.7737,0.0,24.4,1111122 
TCOON,ioos:station:TCOON:127:1,2012-02-04T20:30:00Z,28.2598,-96.7737,0.0,24.3,1111122 
TCOON,ioos:station:TCOON:127:1,2012-02-04T21:00:00Z,28.2598,-96.7737,0.0,24.2,1111122 
TCOON,ioos:station:TCOON:127:1,2012-02-04T21:30:00Z,28.2598,-96.7737,0.0,24.2,1111122 
TCOON,ioos:station:TCOON:127:1,2012-02-04T22:00:00Z,28.2598,-96.7737,0.0,24.1,1111122 
TCOON,ioos:station:TCOON:127:1,2012-02-04T23:00:00Z,28.2598,-96.7737,0.0,24.1,1111122 
TCOON,ioos:station:TCOON:127:1,2012-02-04T23:30:00Z,28.2598,-96.7737,0.0,24.1,1111122 
TCOON,ioos:station:TCOON:127:1,2012-02-05T00:00:00Z,28.2598,-96.7737,0.0,24.1,1111122 
TCOON,ioos:station:TCOON:127:1,2012-02-05T00:30:00Z,28.2598,-96.7737,0.0,24.1,1111122 
TCOON,ioos:station:TCOON:127:1,2012-02-05T01:00:00Z,28.2598,-96.7737,0.0,24.0,1111122 
TCOON,ioos:station:TCOON:127:1,2012-02-05T01:30:00Z,28.2598,-96.7737,0.0,23.9,1111122 
TCOON,ioos:station:TCOON:127:1,2012-02-05T02:00:00Z,28.2598,-96.7737,0.0,23.5,1111122 
TCOON,ioos:station:TCOON:127:1,2012-02-05T02:30:00Z,28.2598,-96.7737,0.0,23.3,1111122 
TCOON,ioos:station:TCOON:127:1,2012-02-05T03:00:00Z,28.2598,-96.7737,0.0,23.2,1111122 
TCOON,ioos:station:TCOON:127:1,2012-02-05T03:30:00Z,28.2598,-96.7737,0.0,22.9,1111122 
TCOON,ioos:station:TCOON:127:1,2012-02-05T04:00:00Z,28.2598,-96.7737,0.0,22.7,1111122 
TCOON,ioos:station:TCOON:127:1,2012-02-05T04:30:00Z,28.2598,-96.7737,0.0,22.7,1111122 
TCOON,ioos:station:TCOON:127:1,2012-02-05T05:00:00Z,28.2598,-96.7737,0.0,22.5,1111122 
TCOON,ioos:station:TCOON:127:1,2012-02-05T05:30:00Z,28.2598,-96.7737,0.0,22.2,1111122 
TCOON,ioos:station:TCOON:127:1,2012-02-05T06:00:00Z,28.2598,-96.7737,0.0,22.2,1111122 
TCOON,ioos:station:TCOON:127:1,2012-02-05T06:30:00Z,28.2598,-96.7737,0.0,22.2,1111122 
TCOON,ioos:station:TCOON:127:1,2012-02-05T07:00:00Z,28.2598,-96.7737,0.0,22.2,1111122 
TCOON,ioos:station:TCOON:127:1,2012-02-05T07:30:00Z,28.2598,-96.7737,0.0,22.1,1111122 
TCOON,ioos:station:TCOON:127:1,2012-02-05T08:00:00Z,28.2598,-96.7737,0.0,22.1,1111122 
TCOON,ioos:station:TCOON:127:1,2012-02-05T09:00:00Z,28.2598,-96.7737,0.0,22.0,1111122 
TCOON,ioos:station:TCOON:127:1,2012-02-05T10:00:00Z,28.2598,-96.7737,0.0,22.0,1111122 
TCOON,ioos:station:TCOON:127:1,2012-02-05T10:30:00Z,28.2598,-96.7737,0.0,22.0,1111122 
TCOON,ioos:station:TCOON:127:1,2012-02-05T11:00:00Z,28.2598,-96.7737,0.0,22.1,1111122 
TCOON,ioos:station:TCOON:127:1,2012-02-05T11:30:00Z,28.2598,-96.7737,0.0,21.7,1111122 
TCOON,ioos:station:TCOON:127:1,2012-02-05T12:00:00Z,28.2598,-96.7737,0.0,21.4,1111122 
TCOON,ioos:station:TCOON:127:1,2012-02-05T12:30:00Z,28.2598,-96.7737,0.0,21.4,1111122 
TCOON,ioos:station:TCOON:127:1,2012-02-05T13:00:00Z,28.2598,-96.7737,0.0,21.5,1111122 
TCOON,ioos:station:TCOON:127:1,2012-02-05T13:30:00Z,28.2598,-96.7737,0.0,21.4,1111122 
TCOON,ioos:station:TCOON:127:1,2012-02-05T14:00:00Z,28.2598,-96.7737,0.0,21.2,1111122 
TCOON,ioos:station:TCOON:127:1,2012-02-05T14:30:00Z,28.2598,-96.7737,0.0,20.9,1111122 
TCOON,ioos:station:TCOON:127:1,2012-02-05T15:00:00Z,28.2598,-96.7737,0.0,21.0,1111122 
TCOON,ioos:station:TCOON:127:1,2012-02-05T15:30:00Z,28.2598,-96.7737,0.0,21.0,1111122 
TCOON,ioos:station:TCOON:127:1,2012-02-05T16:00:00Z,28.2598,-96.7737,0.0,20.7,1111122 
TCOON,ioos:station:TCOON:127:1,2012-02-05T16:30:00Z,28.2598,-96.7737,0.0,21.0,1111122 
TCOON,ioos:station:TCOON:127:1,2012-02-05T17:00:00Z,28.2598,-96.7737,0.0,21.0,1111122 
TCOON,ioos:station:TCOON:127:1,2012-02-05T17:30:00Z,28.2598,-96.7737,0.0,20.5,1111122 
TCOON,ioos:station:TCOON:127:1,2012-02-05T18:00:00Z,28.2598,-96.7737,0.0,20.4,1111122 
TCOON,ioos:station:TCOON:127:1,2012-02-05T18:30:00Z,28.2598,-96.7737,0.0,20.4,1111122 
TCOON,ioos:station:TCOON:127:1,2012-02-05T19:00:00Z,28.2598,-96.7737,0.0,20.3,1111122 
TCOON,ioos:station:TCOON:127:1,2012-02-05T19:30:00Z,28.2598,-96.7737,0.0,20.3,1111122 
TCOON,ioos:station:TCOON:127:1,2012-02-05T20:00:00Z,28.2598,-96.7737,0.0,20.2,1111122 
TCOON,ioos:station:TCOON:127:1,2012-02-05T20:30:00Z,28.2598,-96.7737,0.0,20.4,1111122 
TCOON,ioos:station:TCOON:127:1,2012-02-05T21:00:00Z,28.2598,-96.7737,0.0,20.3,1111122 
TCOON,ioos:station:TCOON:127:1,2012-02-05T21:30:00Z,28.2598,-96.7737,0.0,20.3,1111122 
TCOON,ioos:station:TCOON:127:1,2012-02-05T22:00:00Z,28.2598,-96.7737,0.0,20.4,1111122 
TCOON,ioos:station:TCOON:127:1,2012-02-05T22:30:00Z,28.2598,-96.7737,0.0,20.5,1111122 
TCOON,ioos:station:TCOON:127:1,2012-02-05T23:00:00Z,28.2598,-96.7737,0.0,20.5,1111122 
TCOON,ioos:station:TCOON:127:1,2012-02-05T23:30:00Z,28.2598,-96.7737,0.0,20.4,1111122 
TCOON,ioos:station:TCOON:127:1,2012-02-06T00:00:00Z,28.2598,-96.7737,0.0,20.5,1111122 
TCOON,ioos:station:TCOON:127:1,2012-02-06T00:30:00Z,28.2598,-96.7737,0.0,20.5,1111122 
TCOON,ioos:station:TCOON:127:1,2012-02-06T01:30:00Z,28.2598,-96.7737,0.0,20.6,1111122 
TCOON,ioos:station:TCOON:127:1,2012-02-06T02:30:00Z,28.2598,-96.7737,0.0,20.6,1111122 
TCOON,ioos:station:TCOON:127:1,2012-02-06T03:00:00Z,28.2598,-96.7737,0.0,20.7,1111122 
TCOON,ioos:station:TCOON:127:1,2012-02-06T03:30:00Z,28.2598,-96.7737,0.0,20.7,1111122 
TCOON,ioos:station:TCOON:127:1,2012-02-06T04:00:00Z,28.2598,-96.7737,0.0,20.7,1111122 
TCOON,ioos:station:TCOON:127:1,2012-02-06T04:30:00Z,28.2598,-96.7737,0.0,20.6,1111122 
TCOON,ioos:station:TCOON:127:1,2012-02-06T05:00:00Z,28.2598,-96.7737,0.0,20.6,1111122 
TCOON,ioos:station:TCOON:127:1,2012-02-06T05:30:00Z,28.2598,-96.7737,0.0,20.4,1111122 
TCOON,ioos:station:TCOON:127:1,2012-02-06T06:00:00Z,28.2598,-96.7737,0.0,20.0,1111122 
TCOON,ioos:station:TCOON:127:1,2012-02-06T06:30:00Z,28.2598,-96.7737,0.0,19.6,1111122 
TCOON,ioos:station:TCOON:127:1,2012-02-06T07:00:00Z,28.2598,-96.7737,0.0,19.6,1111122 
TCOON,ioos:station:TCOON:127:1,2012-02-06T07:30:00Z,28.2598,-96.7737,0.0,19.6,1111122 
TCOON,ioos:station:TCOON:127:1,2012-02-06T08:00:00Z,28.2598,-96.7737,0.0,19.6,1111122 
TCOON,ioos:station:TCOON:127:1,2012-02-06T08:30:00Z,28.2598,-96.7737,0.0,19.1,1111122 
TCOON,ioos:station:TCOON:127:1,2012-02-06T09:00:00Z,28.2598,-96.7737,0.0,18.9,1111122 
TCOON,ioos:station:TCOON:127:1,2012-02-06T09:30:00Z,28.2598,-96.7737,0.0,18.6,1111122 
TCOON,ioos:station:TCOON:127:1,2012-02-06T10:00:00Z,28.2598,-96.7737,0.0,18.4,1111122 
TCOON,ioos:station:TCOON:127:1,2012-02-06T10:30:00Z,28.2598,-96.7737,0.0,18.3,1111122 
TCOON,ioos:station:TCOON:127:1,2012-02-06T11:00:00Z,28.2598,-96.7737,0.0,17.7,1111122 
TCOON,ioos:station:TCOON:127:1,2012-02-06T11:30:00Z,28.2598,-96.7737,0.0,17.4,1111122 
TCOON,ioos:station:TCOON:127:1,2012-02-06T12:00:00Z,28.2598,-96.7737,0.0,17.8,1111122 
TCOON,ioos:station:TCOON:127:1,2012-02-06T12:30:00Z,28.2598,-96.7737,0.0,17.4,1111122 
TCOON,ioos:station:TCOON:127:1,2012-02-06T13:00:00Z,28.2598,-96.7737,0.0,17.4,1111122 
TCOON,ioos:station:TCOON:127:1,2012-02-06T14:00:00Z,28.2598,-96.7737,0.0,17.1,1111122 
TCOON,ioos:station:TCOON:127:1,2012-02-06T15:00:00Z,28.2598,-96.7737,0.0,17.5,1111122 
TCOON,ioos:station:TCOON:127:1,2012-02-06T15:30:00Z,28.2598,-96.7737,0.0,17.8,1111122 
TCOON,ioos:station:TCOON:127:1,2012-02-06T16:00:00Z,28.2598,-96.7737,0.0,17.8,1111122 
TCOON,ioos:station:TCOON:127:1,2012-02-06T16:30:00Z,28.2598,-96.7737,0.0,17.7,1111122 
TCOON,ioos:station:TCOON:127:1,2012-02-06T17:00:00Z,28.2598,-96.7737,0.0,17.4,1111122 
TCOON,ioos:station:TCOON:127:1,2012-02-06T17:30:00Z,28.2598,-96.7737,0.0,17.0,1111122 
TCOON,ioos:station:TCOON:127:1,2012-02-06T18:00:00Z,28.2598,-96.7737,0.0,16.4,1111122 
TCOON,ioos:station:TCOON:127:1,2012-02-06T19:00:00Z,28.2598,-96.7737,0.0,16.6,1111122 
TCOON,ioos:station:TCOON:127:1,2012-02-06T19:30:00Z,28.2598,-96.7737,0.0,16.8,1111122 
TCOON,ioos:station:TCOON:127:1,2012-02-06T20:00:00Z,28.2598,-96.7737,0.0,16.7,1111122 
TCOON,ioos:station:TCOON:127:1,2012-02-06T20:30:00Z,28.2598,-96.7737,0.0,16.4,1111122 
TCOON,ioos:station:TCOON:127:1,2012-02-06T21:00:00Z,28.2598,-96.7737,0.0,16.7,1111122 
TCOON,ioos:station:TCOON:127:1,2012-02-06T21:30:00Z,28.2598,-96.7737,0.0,16.7,1111122 
TCOON,ioos:station:TCOON:127:1,2012-02-06T22:00:00Z,28.2598,-96.7737,0.0,16.8,1111122 
TCOON,ioos:station:TCOON:127:1,2012-02-06T22:30:00Z,28.2598,-96.7737,0.0,16.9,1111122 
TCOON,ioos:station:TCOON:127:1,2012-02-06T23:00:00Z,28.2598,-96.7737,0.0,16.9,1111122 
TCOON,ioos:station:TCOON:127:1,2012-02-06T23:30:00Z,28.2598,-96.7737,0.0,16.9,1111122 
TCOON,ioos:station:TCOON:127:1,2012-02-07T00:00:00Z,28.2598,-96.7737,0.0,17.0,1111122 
TCOON,ioos:station:TCOON:127:1,2012-02-07T00:30:00Z,28.2598,-96.7737,0.0,17.0,1111122 
TCOON,ioos:station:TCOON:127:1,2012-02-07T01:30:00Z,28.2598,-96.7737,0.0,17.2,1111122 
TCOON,ioos:station:TCOON:127:1,2012-02-07T02:00:00Z,28.2598,-96.7737,0.0,17.4,1111122 
TCOON,ioos:station:TCOON:127:1,2012-02-07T02:30:00Z,28.2598,-96.7737,0.0,17.6,1111122 
TCOON,ioos:station:TCOON:127:1,2012-02-07T03:00:00Z,28.2598,-96.7737,0.0,17.7,1111122 
TCOON,ioos:station:TCOON:127:1,2012-02-07T03:30:00Z,28.2598,-96.7737,0.0,17.6,1111122 
TCOON,ioos:station:TCOON:127:1,2012-02-07T04:00:00Z,28.2598,-96.7737,0.0,17.1,1111122 
TCOON,ioos:station:TCOON:127:1,2012-02-07T04:30:00Z,28.2598,-96.7737,0.0,16.9,1111122 
TCOON,ioos:station:TCOON:127:1,2012-02-07T05:00:00Z,28.2598,-96.7737,0.0,16.8,1111122 
TCOON,ioos:station:TCOON:127:1,2012-02-07T05:30:00Z,28.2598,-96.7737,0.0,16.8,1111122 
TCOON,ioos:station:TCOON:127:1,2012-02-07T06:00:00Z,28.2598,-96.7737,0.0,16.6,1111122 
TCOON,ioos:station:TCOON:127:1,2012-02-07T06:30:00Z,28.2598,-96.7737,0.0,16.7,1111122 
TCOON,ioos:station:TCOON:127:1,2012-02-07T07:00:00Z,28.2598,-96.7737,0.0,17.0,1111122 
TCOON,ioos:station:TCOON:127:1,2012-02-07T07:30:00Z,28.2598,-96.7737,0.0,17.0,1111122 
TCOON,ioos:station:TCOON:127:1,2012-02-07T08:00:00Z,28.2598,-96.7737,0.0,17.0,1111122 
TCOON,ioos:station:TCOON:127:1,2012-02-07T08:30:00Z,28.2598,-96.7737,0.0,17.0,1111122 
TCOON,ioos:station:TCOON:127:1,2012-02-07T09:00:00Z,28.2598,-96.7737,0.0,17.3,1111122 
TCOON,ioos:station:TCOON:127:1,2012-02-07T09:30:00Z,28.2598,-96.7737,0.0,17.1,1111122 
TCOON,ioos:station:TCOON:127:1,2012-02-07T10:00:00Z,28.2598,-96.7737,0.0,17.3,1111122 
TCOON,ioos:station:TCOON:127:1,2012-02-07T10:30:00Z,28.2598,-96.7737,0.0,17.4,1111122 
TCOON,ioos:station:TCOON:127:1,2012-02-07T11:00:00Z,28.2598,-96.7737,0.0,17.4,1111122 
TCOON,ioos:station:TCOON:127:1,2012-02-07T11:30:00Z,28.2598,-96.7737,0.0,17.4,1111122 
TCOON,ioos:station:TCOON:127:1,2012-02-07T12:00:00Z,28.2598,-96.7737,0.0,17.4,1111122 
TCOON,ioos:station:TCOON:127:1,2012-02-07T12:30:00Z,28.2598,-96.7737,0.0,17.5,1111122 
TCOON,ioos:station:TCOON:127:1,2012-02-07T13:00:00Z,28.2598,-96.7737,0.0,17.5,1111122 
TCOON,ioos:station:TCOON:127:1,2012-02-07T13:30:00Z,28.2598,-96.7737,0.0,17.6,1111122 
TCOON,ioos:station:TCOON:127:1,2012-02-07T14:00:00Z,28.2598,-96.7737,0.0,17.7,1111122 
TCOON,ioos:station:TCOON:127:1,2012-02-07T15:00:00Z,28.2598,-96.7737,0.0,17.8,1111122 
TCOON,ioos:station:TCOON:127:1,2012-02-07T15:30:00Z,28.2598,-96.7737,0.0,17.7,1111122 
TCOON,ioos:station:TCOON:127:1,2012-02-07T17:00:00Z,28.2598,-96.7737,0.0,17.5,1111122 
TCOON,ioos:station:TCOON:127:1,2012-02-07T17:30:00Z,28.2598,-96.7737,0.0,17.5,1111122 
TCOON,ioos:station:TCOON:127:1,2012-02-07T18:30:00Z,28.2598,-96.7737,0.0,17.5,1111122 
TCOON,ioos:station:TCOON:127:1,2012-02-07T19:00:00Z,28.2598,-96.7737,0.0,17.2,1111122 
TCOON,ioos:station:TCOON:127:1,2012-02-07T19:30:00Z,28.2598,-96.7737,0.0,17.4,1111122 
TCOON,ioos:station:TCOON:127:1,2012-02-07T20:00:00Z,28.2598,-96.7737,0.0,16.7,1111122 
TCOON,ioos:station:TCOON:127:1,2012-02-07T20:30:00Z,28.2598,-96.7737,0.0,16.7,1111122 
TCOON,ioos:station:TCOON:127:1,2012-02-07T21:00:00Z,28.2598,-96.7737,0.0,16.6,1111122 
TCOON,ioos:station:TCOON:127:1,2012-02-07T22:30:00Z,28.2598,-96.7737,0.0,17.3,1111122 
TCOON,ioos:station:TCOON:127:1,2012-02-07T23:00:00Z,28.2598,-96.7737,0.0,16.9,1111122 
TCOON,ioos:station:TCOON:127:1,2012-02-08T00:30:00Z,28.2598,-96.7737,0.0,17.5,1111122 
TCOON,ioos:station:TCOON:127:1,2012-02-08T01:00:00Z,28.2598,-96.7737,0.0,17.4,1111122 
TCOON,ioos:station:TCOON:127:1,2012-02-08T01:30:00Z,28.2598,-96.7737,0.0,17.4,1111122 
TCOON,ioos:station:TCOON:127:1,2012-02-08T02:00:00Z,28.2598,-96.7737,0.0,17.5,1111122 
TCOON,ioos:station:TCOON:127:1,2012-02-08T03:00:00Z,28.2598,-96.7737,0.0,17.6,1111122 
TCOON,ioos:station:TCOON:127:1,2012-02-08T03:30:00Z,28.2598,-96.7737,0.0,17.6,1111122 
TCOON,ioos:station:TCOON:127:1,2012-02-08T04:30:00Z,28.2598,-96.7737,0.0,17.7,1111122 
TCOON,ioos:station:TCOON:127:1,2012-02-08T05:30:00Z,28.2598,-96.7737,0.0,17.7,1111122 
TCOON,ioos:station:TCOON:127:1,2012-02-08T06:00:00Z,28.2598,-96.7737,0.0,17.7,1111122 
TCOON,ioos:station:TCOON:127:1,2012-02-08T06:30:00Z,28.2598,-96.7737,0.0,17.8,1111122 
TCOON,ioos:station:TCOON:127:1,2012-02-08T07:00:00Z,28.2598,-96.7737,0.0,17.7,1111122 
TCOON,ioos:station:TCOON:127:1,2012-02-08T07:30:00Z,28.2598,-96.7737,0.0,17.6,1111122 
TCOON,ioos:station:TCOON:127:1,2012-02-08T08:30:00Z,28.2598,-96.7737,0.0,17.8,1111122 
TCOON,ioos:station:TCOON:127:1,2012-02-08T09:00:00Z,28.2598,-96.7737,0.0,17.8,1111122 
TCOON,ioos:station:TCOON:127:1,2012-02-08T09:30:00Z,28.2598,-96.7737,0.0,17.9,1111122 
TCOON,ioos:station:TCOON:127:1,2012-02-08T10:00:00Z,28.2598,-96.7737,0.0,17.9,1111122 
TCOON,ioos:station:TCOON:127:1,2012-02-08T10:30:00Z,28.2598,-96.7737,0.0,17.9,1111122 
TCOON,ioos:station:TCOON:127:1,2012-02-08T11:00:00Z,28.2598,-96.7737,0.0,18.0,1111122 
TCOON,ioos:station:TCOON:127:1,2012-02-08T11:30:00Z,28.2598,-96.7737,0.0,18.1,1111122 
TCOON,ioos:station:TCOON:127:1,2012-02-08T12:00:00Z,28.2598,-96.7737,0.0,18.1,1111122 
TCOON,ioos:station:TCOON:127:1,2012-02-08T12:30:00Z,28.2598,-96.7737,0.0,18.2,1111122 
TCOON,ioos:station:TCOON:127:1,2012-02-08T13:00:00Z,28.2598,-96.7737,0.0,18.1,1111122 
TCOON,ioos:station:TCOON:127:1,2012-02-08T13:30:00Z,28.2598,-96.7737,0.0,18.1,1111122 
TCOON,ioos:station:TCOON:127:1,2012-02-08T14:30:00Z,28.2598,-96.7737,0.0,18.1,1111122 
TCOON,ioos:station:TCOON:127:1,2012-02-08T15:00:00Z,28.2598,-96.7737,0.0,18.0,1111122 
TCOON,ioos:station:TCOON:127:1,2012-02-08T15:30:00Z,28.2598,-96.7737,0.0,17.9,1111122 
TCOON,ioos:station:TCOON:127:1,2012-02-08T16:00:00Z,28.2598,-96.7737,0.0,17.6,1111122 
TCOON,ioos:station:TCOON:127:1,2012-02-08T16:30:00Z,28.2598,-96.7737,0.0,17.4,1111122 
TCOON,ioos:station:TCOON:127:1,2012-02-08T17:00:00Z,28.2598,-96.7737,0.0,16.9,1111122 
TCOON,ioos:station:TCOON:127:1,2012-02-08T17:30:00Z,28.2598,-96.7737,0.0,16.7,1111122 
TCOON,ioos:station:TCOON:127:1,2012-02-08T18:30:00Z,28.2598,-96.7737,0.0,16.7,1111122 
TCOON,ioos:station:TCOON:127:1,2012-02-08T19:00:00Z,28.2598,-96.7737,0.0,16.7,1111122 
TCOON,ioos:station:TCOON:127:1,2012-02-08T19:30:00Z,28.2598,-96.7737,0.0,16.7,1111122 
TCOON,ioos:station:TCOON:127:1,2012-02-08T20:00:00Z,28.2598,-96.7737,0.0,16.7,1111122 